This demonstration page uses our WeatherBlox Daily Observations layout. Learn more.

Left ArrowRight Arrow

Hourly Observations for November 21, 2016

Temp ( °F °C ) Dew Point ( °F °C ) Humidity (%) Winds ( mph kmh ) Pressure ( in mb ) Visibility ( mi km ) Precip ( " mm )
12:51 am 00:51 Cloudy 56 13.3 41 5 57 57 SSW 7 11 29.97 1015 10 16.0934 N/A
1:51 am 01:51 Cloudy 56 13.3 40 4.4 55 55 undefined N/A 29.93 1014 10 16.0934 N/A
2:51 am 02:51 Cloudy 54 12.2 42 5.6 64 64 S 5 7 29.93 1014 10 16.0934 N/A
3:51 am 03:51 Cloudy 53 11.7 45 7.2 74 74 NE 8 13 29.93 1014 10 16.0934 0.01 0.254
4:51 am 04:51 Mostly Cloudy 52 11.1 47 8.3 83 83 SSW 8 13 29.91 1013 10 16.0934 N/A
5:51 am 05:51 Clear 52 11.1 47 8.3 83 83 NE 3 6 29.9 1013 10 16.0934 N/A
6:51 am 06:51 Mostly Cloudy 55 12.8 46 7.8 72 72 SE 9 15 29.9 1013 10 16.0934 N/A
7:51 am 07:51 Mostly Cloudy 57 13.9 47 8.3 69 69 SE 14 22 29.89 1012 10 16.0934 N/A
8:51 am 08:51 Mostly Cloudy 59 15 48 8.9 67 67 SE 10 17 29.89 1012 10 16.0934 N/A
9:51 am 09:51 Mostly Cloudy 62 16.7 46 7.8 56 56 ESE 13 20 29.86 1011 10 16.0934 N/A
10:40 am 10:40 Mostly Cloudy with Nearby Thunderstorms 64 17.8 47 8.3 54 54 ESE 8 13 29.85 1011 10 16.0934 N/A
10:51 am 10:51 Cloudy 65 18.3 47 8.3 52 52 N N/A 29.86 1011 10 16.0934 N/A
11:51 am 11:51 Mostly Cloudy 68 20 43 6.1 40 40 N N/A 29.8 1009 10 16.0934 0.06 1.524
12:51 pm 12:51 Cloudy 70 21.1 42 5.6 37 37 NW 9 15 29.75 1007 10 16.0934 0.01 0.254
1:51 pm 13:51 Mostly Sunny 70 21.1 42 5.6 37 37 NW 13 20 29.72 1006 10 16.0934 N/A
2:51 pm 14:51 Cloudy 60 15.6 48 8.9 65 65 NNW 21 33 29.78 1009 10 16.0934 N/A
3:51 pm 15:51 Mostly Sunny 62 16.7 44 6.7 52 52 WNW 21 33 29.78 1009 10 16.0934 N/A
4:51 pm 16:51 Sunny 57 13.9 44 6.7 62 62 NNW 22 35 29.82 1010 10 16.0934 N/A
5:51 pm 17:51 Mostly Clear 56 13.3 44 6.7 65 65 NNW 22 35 29.85 1011 10 16.0934 N/A
6:51 pm 18:51 Partly Cloudy 57 13.9 43 6.1 60 60 NW 15 24 29.86 1011 10 16.0934 N/A
7:51 pm 19:51 Cloudy 55 12.8 46 7.8 72 72 WNW 10 17 29.91 1013 10 16.0934 N/A
8:51 pm 20:51 Mostly Cloudy 55 12.8 44 6.7 67 67 NW 12 19 29.91 1013 10 16.0934 0.01 0.254
9:51 pm 21:51 Cloudy 55 12.8 45 7.2 69 69 NW 9 15 29.91 1013 10 16.0934 N/A
10:51 pm 22:51 Cloudy 53 11.7 44 6.7 72 72 NW 9 15 29.92 1013 10 16.0934 N/A
11:51 pm 23:51 Clear 50 10 44 6.7 80 80 NW 8 13 29.93 1014 10 16.0934 N/A

Powered by AerisWeather